[[{"header":{"parameterUnit":"m.s-1","parameterCategory":1,"la1":30.2991,"la2":30.254,"lo1":-89.0895,"lo2":-89.0444,"dy":0.0017,"dx":0.0017,"nx":28,"ny":28,"refTime":"2025-11-20T03:00:00:Z","depth":0,"parameterNumber":2,"parameterNumberName":"U-component_of_WINDS"},"data":[0,0,0,0,0,0,0,0,0,0,0,0,0,0,0,0,0,0,0,0,0,0,0,0,0,0,0,0,0,0,0,0,0,0,0,0,0,0,0,0,0,0,0,0,0,0,0,0,0,0,0,0,0,0,0,0,0,0,-1.2001,-1.2001,0,-1.2011,-1.2012,-1.2012,-1.1977,-1.1976,-1.1975,-1.1974,-1.1985,-1.1986,-1.1987,0,0,0,0,0,0,0,0,0,0,0,0,0,-1.1951,-1.1952,-1.2001,-1.2001,-1.2001,-1.2011,-1.2012,-1.2012,-1.1977,-1.1976,-1.1975,-1.1973,-1.1984,-1.1986,-1.1987,0,0,0,0,0,0,0,0,0,0,0,0,0,-1.1969,-1.1953,-1.2001,-1.1985,-1.1984,-1.2011,-1.2012,-1.2012,-1.1977,-1.1976,-1.1974,-1.1973,-1.1984,-1.1986,-1.1987,-1.2031,0,0,-1.1993,-1.1994,0,0,0,0,0,0,0,0,-1.1968,-1.197,-1.1987,-1.1986,-1.1985,-1.1991,-1.1998,-1.2018,-1.1978,-1.198,-1.1974,-1.1972,-1.1988,-1.199,-1.1995,-1.2031,-1.2032,-1.1993,-1.1995,-1.1995,-1.1996,0,0,0,0,0,0,0,-1.1966,-1.197,-1.2005,-1.1988,-1.1986,-1.1978,-1.1978,-1.2002,-1.1993,-1.198,-1.1977,-1.1979,-1.1987,-1.1993,-1.1995,-1.2032,-1.1993,-1.1995,-1.1996,-1.1997,-1.2103,-1.2105,0,0,0,0,0,0,-1.1967,-1.1969,-1.2005,-1.2005,-1.1972,-1.198,-1.1981,-1.1991,-1.1992,-1.1991,-1.198,-1.1977,-1.1991,-1.1993,-1.1995,-1.2045,-1.1995,-1.1997,-1.1998,-1.2102,-1.2104,-1.2105,0,0,0,0,0,0,-1.1966,-1.1971,-1.2004,-1.1987,-1.199,-1.1982,-1.1994,-1.1992,-1.1998,-1.1993,-1.1991,-1.1988,-1.199,-1.1993,-1.2022,-1.2045,-1.1998,-1.2,-1.21,-1.2102,-1.2105,-1.2146,0,0,0,0,0,0,-1.1965,-1.1971,-1.1987,-1.1987,-1.1991,-1.2031,-1.1996,-1.1993,-1.2001,-1.1997,-1.2,-1.1998,-1.1989,-1.2019,-1.2024,-1.2047,-1.2001,-1.2097,-1.2101,-1.2104,-1.2142,-1.2149,-1.2155,0,0,0,0,0,-1.1963,-1.1998,-1.1988,-1.1992,-1.2011,-1.2032,-1.2035,-1.2023,-1.2003,-1.2019,-1.2016,-1.1998,-1.2042,-1.2023,-1.2027,-1.2051,-1.2096,-1.21,-1.2104,-1.2139,-1.2148,-1.2155,0,0,0,0,0,0,-1.2001,-1.1998,-1.1986,-1.2022,-1.2028,-1.2026,-1.2046,-1.2032,-1.2043,-1.2039,-1.2024,-1.2025,-1.2057,-1.2057,-1.2035,-1.2093,-1.2066,-1.2071,-1.2091,-1.2099,-1.2106,-1.2104,-1.2003,0,0,0,0,0,-1.2014,-1.2031,-1.2027,-1.2059,-1.2063,-1.2054,-1.2063,-1.2053,-1.2058,-1.206,-1.2059,-1.2065,-1.208,-1.209,-1.2103,-1.2143,-1.2142,-1.2161,-1.2168,-1.2173,-1.2177,-1.2197,-1.2205,-1.2118,-1.2118,-1.2118,0,0,-1.2039,-1.204,-1.2052,-1.2067,-1.207,-1.2088,-1.2056,-1.2077,-1.209,-1.2063,-1.2091,-1.209,-1.2096,-1.213,-1.2145,-1.2131,-1.2202,-1.2178,-1.2183,-1.2183,-1.2202,-1.221,-1.2218,-1.212,-1.212,-1.212,0,0,-1.2095,-1.2098,-1.2124,-1.2128,-1.2133,-1.2127,-1.2134,-1.2135,-1.2133,-1.2161,-1.2141,-1.2157,-1.2183,-1.2187,-1.2193,-1.2251,-1.2234,-1.2256,-1.2289,-1.2309,-1.2316,-1.2322,-1.2342,-1.2349,-1.226,-1.226,-1.226,0,-1.2127,-1.2153,-1.214,-1.2162,-1.2169,-1.2146,-1.2172,-1.2177,-1.2186,-1.2191,-1.2176,-1.2208,-1.221,-1.2245,-1.2259,-1.2265,-1.2271,-1.2255,-1.2316,-1.2322,-1.2327,-1.2346,-1.2353,-1.2263,-1.2262,-1.2262,-1.2262,0,-1.2191,-1.2209,-1.223,-1.2239,-1.2249,-1.2273,-1.2264,-1.2275,-1.2265,-1.2261,-1.2289,-1.229,-1.2303,-1.2311,-1.2302,-1.2345,-1.2336,-1.2319,-1.2291,-1.2338,-1.2355,-1.2363,-1.2266,-1.2265,-1.2264,-1.2264,0,0,-1.227,-1.2272,-1.2279,-1.2283,-1.2287,-1.2301,-1.2325,-1.2337,-1.2347,-1.2354,-1.2373,-1.2396,-1.238,-1.2386,-1.2377,-1.2394,-1.2439,-1.2375,-1.2375,-1.2386,-1.2485,-1.2497,-1.2505,-1.2429,-1.243,-1.2431,-1.2484,0,-1.2324,-1.2363,-1.2352,-1.2391,-1.2408,-1.2386,-1.2407,-1.2411,-1.2408,-1.2422,-1.2419,-1.2435,-1.2413,-1.2417,-1.2433,-1.243,-1.2459,-1.2426,-1.2445,-1.2446,-1.2443,-1.2515,-1.2527,-1.2577,-1.2491,-1.2492,-1.2493,0,-1.2392,-1.2402,-1.2442,-1.2443,-1.245,-1.2468,-1.2478,-1.2492,-1.2497,-1.2494,-1.2501,-1.2488,-1.2511,-1.2484,-1.2514,-1.2493,-1.25,-1.25,-1.2502,-1.2502,-1.2471,-1.2515,-1.2593,-1.26,-1.2504,-1.2503,-1.2502,0,-1.2444,-1.2467,-1.2494,-1.2498,-1.2501,-1.2514,-1.2515,-1.2519,-1.2527,-1.2536,-1.2541,-1.2554,-1.256,-1.257,-1.256,-1.2542,-1.2592,-1.2565,-1.2589,-1.2589,-1.2599,-1.2599,-1.2678,-1.2607,-1.2607,-1.2607,-1.2606,0,-1.2505,-1.253,-1.2518,-1.2534,-1.2562,-1.255,-1.2577,-1.2577,-1.258,-1.2596,-1.2579,-1.2594,-1.2581,-1.2596,-1.2589,-1.2615,-1.2618,-1.2615,-1.2613,-1.2616,-1.2616,-1.262,-1.2615,-1.2608,-1.2608,-1.2608,-1.2607,0,-1.2567,-1.256,-1.2587,-1.2587,-1.2588,-1.2608,-1.2608,-1.2623,-1.2619,-1.2639,-1.2644,-1.2637,-1.2653,-1.2645,-1.2662,-1.2657,-1.269,-1.2684,-1.2688,-1.2686,-1.271,-1.2708,-1.2793,-1.2803,-1.2727,-1.2728,-1.2729,0,-1.2605,-1.2624,-1.2626,-1.2635,-1.2638,-1.2653,-1.2661,-1.265,-1.2659,-1.2666,-1.2681,-1.2695,-1.2706,-1.2732,-1.2729,-1.2741,-1.2734,-1.2764,-1.2736,-1.2738,-1.2733,-1.2732,-1.2733,-1.2769,-1.2769,-1.277,-1.2771,0,-1.2674,-1.2669,-1.2682,-1.2693,-1.2703,-1.2712,-1.2719,-1.2727,-1.2716,-1.2728,-1.2743,-1.2752,-1.2769,-1.2783,-1.2794,-1.2795,-1.2781,-1.278,-1.2786,-1.2788,-1.279,-1.2788,-1.2702,-1.2777,-1.2777,-1.2776,-1.2776,-1.2776,-1.2725,-1.274,-1.2744,-1.2758,-1.2762,-1.2769,-1.2783,-1.2781,-1.2794,-1.2806,-1.2799,-1.2817,-1.2821,-1.2834,-1.2838,-1.2852,-1.284,-1.2849,-1.2851,-1.2854,-1.2856,-1.2789,-1.2854,-1.2854,-1.2854,-1.2854,-1.2853,0,-1.2791,-1.2793,-1.2806,-1.2816,-1.2827,-1.2813,-1.282,-1.283,-1.2847,-1.2852,-1.2863,-1.2881,-1.2894,-1.2893,-1.2905,-1.2917,-1.291,-1.292,-1.2918,-1.2919,-1.2867,-1.2859,-1.2925,-1.2925,-1.2925,-1.2925,-1.2925,-1.2925,-1.2827,-1.2853,-1.2849,-1.2876,-1.2877,-1.2894,-1.2899,-1.2905,-1.2909,-1.293,-1.2941,-1.294,-1.2942,-1.2955,-1.2966,-1.2966,-1.297,-1.2982,-1.2979,-1.293,-1.2923,-1.2916,-1.2909,-1.2984,-1.2984,-1.303,-1.303,-1.3031]},{"header":{"parameterUnit":"m.s-1","parameterCategory":1,"la1":30.2991,"la2":30.254,"lo1":-89.0895,"lo2":-89.0444,"dy":0.0017,"dx":0.0017,"nx":28,"ny":28,"refTime":"2025-11-20T03:00:00:Z","depth":0,"parameterNumber":3,"parameterNumberName":"V-component_of_WINDS"},"data":[0,0,0,0,0,0,0,0,0,0,0,0,0,0,0,0,0,0,0,0,0,0,0,0,0,0,0,0,0,0,0,0,0,0,0,0,0,0,0,0,0,0,0,0,0,0,0,0,0,0,0,0,0,0,0,0,0,0,3.1955,3.1955,0,3.1976,3.1977,3.1977,3.2025,3.2026,3.2027,3.2028,3.2041,3.2041,3.204,0,0,0,0,0,0,0,0,0,0,0,0,0,3.1952,3.1952,3.1955,3.1955,3.1956,3.1976,3.1977,3.1977,3.2025,3.2026,3.2027,3.2028,3.2041,3.2041,3.204,0,0,0,0,0,0,0,0,0,0,0,0,0,3.1961,3.1952,3.1955,3.1982,3.1985,3.1976,3.1977,3.1977,3.2024,3.2026,3.2027,3.2029,3.2042,3.2041,3.204,3.2004,0,0,3.2037,3.2037,0,0,0,0,0,0,0,0,3.1961,3.1961,3.1978,3.198,3.1983,3.2,3.1981,3.1986,3.2024,3.2009,3.2028,3.203,3.2026,3.2026,3.2026,3.2005,3.2005,3.2037,3.2037,3.2036,3.2036,0,0,0,0,0,0,0,3.196,3.1961,3.1963,3.1978,3.1981,3.1992,3.1995,3.1982,3.2008,3.201,3.2014,3.2016,3.2027,3.2027,3.2027,3.2005,3.2037,3.2036,3.2036,3.2035,3.1961,3.196,0,0,0,0,0,0,3.1956,3.196,3.1963,3.1964,3.1976,3.1991,3.1994,3.1993,3.2009,3.2013,3.2015,3.2019,3.2028,3.2028,3.2028,3.1991,3.2036,3.2035,3.2035,3.1963,3.1961,3.1959,0,0,0,0,0,0,3.1956,3.1956,3.1962,3.1963,3.1965,3.1989,3.1987,3.1992,3.1993,3.2012,3.2017,3.201,3.2029,3.2029,3.2012,3.1992,3.2035,3.2034,3.1964,3.1962,3.196,3.1915,0,0,0,0,0,0,3.1956,3.1956,3.1943,3.1962,3.1964,3.1946,3.1986,3.1992,3.1992,3.1997,3.2009,3.2012,3.203,3.2013,3.2011,3.1992,3.2033,3.1966,3.1963,3.1961,3.1918,3.1911,3.1906,0,0,0,0,0,3.1956,3.1926,3.1942,3.1942,3.1949,3.1945,3.1946,3.1969,3.199,3.1977,3.1991,3.2012,3.1995,3.201,3.2009,3.1989,3.1968,3.1964,3.1961,3.1921,3.1913,3.1906,0,0,0,0,0,0,3.1899,3.1929,3.1947,3.1923,3.1932,3.1953,3.1937,3.1959,3.1959,3.1963,3.199,3.1993,3.1972,3.1978,3.1996,3.1958,3.1985,3.1981,3.1955,3.1947,3.1941,3.194,3.2033,0,0,0,0,0,3.1885,3.1881,3.1906,3.1883,3.1887,3.1911,3.191,3.1928,3.1937,3.194,3.1952,3.1957,3.1954,3.1951,3.1948,3.1919,3.1924,3.1905,3.1899,3.1894,3.189,3.1881,3.1874,3.1949,3.1949,3.1949,0,0,3.1853,3.1869,3.1864,3.1872,3.1881,3.1876,3.1914,3.1905,3.1902,3.1937,3.1924,3.1933,3.1941,3.192,3.1911,3.1924,3.1871,3.189,3.1885,3.1885,3.1877,3.1869,3.1863,3.1947,3.1947,3.1947,0,0,3.1794,3.1805,3.1789,3.1799,3.1814,3.1831,3.1828,3.1847,3.1856,3.1844,3.1872,3.1867,3.1859,3.1866,3.1868,3.1819,3.1839,3.1816,3.1784,3.1774,3.1768,3.1763,3.1748,3.1742,3.1813,3.1813,3.1813,0,3.1752,3.1748,3.1777,3.177,3.1774,3.1811,3.1796,3.1802,3.1814,3.1815,3.1831,3.1827,3.1834,3.1817,3.1806,3.1805,3.1803,3.1815,3.1767,3.1762,3.1758,3.1744,3.1738,3.181,3.181,3.1811,3.1811,0,3.1698,3.1695,3.168,3.1696,3.1698,3.1686,3.1714,3.1712,3.1731,3.1747,3.1736,3.1748,3.1751,3.1748,3.1763,3.1734,3.1743,3.1762,3.179,3.1747,3.1735,3.173,3.1806,3.1807,3.1808,3.1809,0,0,3.1601,3.1639,3.1633,3.1643,3.1664,3.1661,3.1652,3.1659,3.1659,3.1666,3.166,3.1656,3.1676,3.1679,3.1696,3.1688,3.1653,3.1709,3.1709,3.17,3.1625,3.1612,3.1605,3.1667,3.1666,3.1665,3.1625,0,3.1549,3.1539,3.1568,3.1549,3.1548,3.1586,3.1579,3.1591,3.1607,3.1607,3.1623,3.1622,3.1646,3.1649,3.1642,3.1658,3.1638,3.1661,3.1662,3.1662,3.1661,3.1598,3.1583,3.1545,3.162,3.1619,3.1619,0,3.1485,3.1496,3.1479,3.1507,3.1508,3.1501,3.1513,3.1512,3.1528,3.154,3.1547,3.1569,3.1563,3.159,3.1582,3.1598,3.16,3.1608,3.1607,3.1609,3.1638,3.1601,3.1533,3.1528,3.1611,3.1612,3.1612,0,3.1421,3.143,3.1423,3.143,3.1461,3.1456,3.1468,3.1486,3.149,3.1499,3.1503,3.1509,3.1513,3.1518,3.1542,3.1559,3.1533,3.1561,3.1544,3.1544,3.1537,3.1537,3.1471,3.1535,3.1535,3.1535,3.1535,0,3.1361,3.135,3.1396,3.1391,3.1381,3.1414,3.1403,3.1418,3.1435,3.1434,3.1465,3.1463,3.1495,3.1497,3.1516,3.1509,3.151,3.152,3.1526,3.1519,3.1518,3.1521,3.1525,3.1534,3.1534,3.1534,3.1535,0,3.1287,3.1317,3.1312,3.1345,3.1353,3.1344,3.1371,3.1368,3.1388,3.1387,3.1389,3.1418,3.1423,3.1449,3.1457,3.147,3.1458,3.1467,3.1453,3.1457,3.1441,3.1443,3.1375,3.1369,3.1435,3.1434,3.1434,0,3.1247,3.1241,3.1274,3.1278,3.1291,3.1295,3.1301,3.1335,3.134,3.136,3.1356,3.1364,3.1372,3.1378,3.1399,3.1408,3.1419,3.1395,3.142,3.1415,3.1422,3.1423,3.1424,3.1389,3.1388,3.1388,3.1387,0,3.1175,3.1192,3.1201,3.1217,3.1224,3.1237,3.1251,3.1252,3.129,3.1294,3.1301,3.1308,3.1321,3.1329,3.1342,3.1354,3.1377,3.138,3.1377,3.137,3.1364,3.137,3.1441,3.1381,3.1381,3.1382,3.1382,3.1382,3.1119,3.1117,3.1142,3.1153,3.1168,3.1183,3.1184,3.1206,3.1214,3.1229,3.1248,3.1254,3.1274,3.1294,3.1305,3.131,3.1323,3.1317,3.1316,3.1315,3.1313,3.1363,3.1312,3.1312,3.1312,3.1312,3.1312,0,3.1051,3.1071,3.108,3.1103,3.1112,3.1137,3.1155,3.116,3.1167,3.1184,3.1194,3.1205,3.1214,3.1239,3.1251,3.1251,3.1262,3.1253,3.1254,3.1257,3.1299,3.1302,3.1244,3.1244,3.1244,3.1244,3.1244,3.1244,3.1017,3.1017,3.1037,3.1046,3.1065,3.1074,3.1083,3.1097,3.1112,3.1124,3.1134,3.1151,3.1173,3.1188,3.1198,3.1205,3.1209,3.1197,3.1207,3.1247,3.1253,3.1259,3.1263,3.1197,3.1197,3.1165,3.1165,3.1165]}]]